Torna al catalogo

QIANFAN-48

AttivoComunicazioniPO
NORAD 62249·PAYLOAD·🇨🇳 China

Lanciato Dec 5, 2024 da Taiyuan Satellite Launch Center

Loading…

Prossimi Passaggi (prossime 24 ore)

TLE

AggiornatoSource: Space-Track

Epoca: Sep 14, 2026, 14:08 UTC

1 62249U 24232N   26257.58910681  .00000092  00000-0  12306-3 0  9992
2 62249  89.0159  13.5408 0018951 121.7624 238.5377 13.51022373136490

Traccia QIANFAN-48 in tempo reale con AllMySat

Download on the App Store